Voltar ao catálogo

COSMOS 2206

GLONASS

AtivoNavegaçãoMEO
NORAD 22056·PAYLOAD·🇷🇺 Russia

Lançado Jul 30, 1992 de Baikonur Cosmodrome

Loading…

Próximas Passagens (próximas 24 horas)

TLE

AtualizadoSource: Space-Track

Época: Sep 14, 2026, 05:19 UTC

1 22056U 92047A   26257.22159443 -.00000035  00000-0  00000-0 0  9998
2 22056  64.0796 298.9328 0011366 240.7144 126.0559  2.13107054265520

Acompanhe COSMOS 2206 em tempo real com AllMySat

Download on the App Store